This demonstration page uses our WeatherBlox Daily Observations layout. Learn more.

Left ArrowRight Arrow

Hourly Observations for October 9, 2016

Temp ( °F °C ) Dew Point ( °F °C ) Humidity (%) Winds ( mph kmh ) Pressure ( in mb ) Visibility ( mi km ) Precip ( " mm )
12:15 am 00:15 Cloudy 63 17 61 16 94 94 NNW 10 17 30.00 1016 10 16 N/A
12:35 am 00:35 Mostly Cloudy 63 17 59 15 88 88 N 10 17 30.00 1016 10 16 N/A
12:55 am 00:55 Mostly Cloudy 63 17 55 13 77 77 N 12 19 30.03 1017 10 16 N/A
1:15 am 01:15 Mostly Cloudy 63 17 55 13 77 77 N 10 17 30.03 1017 10 16 N/A
1:35 am 01:35 Mostly Cloudy 61 16 54 12 77 77 N 15 24 30.03 1017 10 16 N/A
1:55 am 01:55 Partly Cloudy 61 16 54 12 77 77 NNW 14 22 30.00 1016 10 16 N/A
2:15 am 02:15 Partly Cloudy 61 16 54 12 77 77 N 14 22 30.00 1016 10 16 N/A
2:35 am 02:35 Clear 61 16 52 11 72 72 N 14 22 30.03 1017 10 16 N/A
2:55 am 02:55 Partly Cloudy 59 15 50 10 72 72 NNW 20 31 30.03 1017 10 16 N/A
3:15 am 03:15 Partly Cloudy 59 15 50 10 72 72 N 17 28 30.03 1017 10 16 N/A
3:35 am 03:35 Partly Cloudy 59 15 48 9 68 68 N 18 30 30.03 1017 10 16 N/A
3:55 am 03:55 Mostly Cloudy 59 15 48 9 68 68 NNW 18 30 30.03 1017 10 16 N/A
4:15 am 04:15 Partly Cloudy 59 15 48 9 68 68 N 21 33 30.00 1016 10 16 N/A
4:35 am 04:35 Partly Cloudy 59 15 46 8 63 63 N 22 35 30.00 1016 10 16 N/A
4:55 am 04:55 Partly Cloudy 57 14 46 8 67 67 N 17 28 30.00 1016 10 16 N/A
5:15 am 05:15 Partly Cloudy 57 14 46 8 67 67 N 21 33 30.03 1017 10 16 N/A
5:35 am 05:35 Clear 57 14 48 9 72 72 NNW 18 30 30.03 1017 10 16 N/A
5:55 am 05:55 Clear 55 13 48 9 77 77 N 18 30 30.00 1016 10 16 N/A
6:15 am 06:15 Clear 55 13 46 8 72 72 NNW 18 30 30.03 1017 10 16 N/A
6:35 am 06:35 Clear 55 13 46 8 72 72 NNW 18 30 30.03 1017 10 16 N/A
6:55 am 06:55 Clear 55 13 46 8 72 72 N 18 30 30.03 1017 10 16 N/A
7:15 am 07:15 Sunny 55 13 46 8 72 72 N 16 26 30.03 1017 10 16 N/A
7:35 am 07:35 Sunny 54 12 46 8 77 77 NNW 18 30 30.03 1017 10 16 N/A
7:55 am 07:55 Sunny 54 12 46 8 77 77 N 17 28 30.06 1018 10 16 N/A
8:15 am 08:15 Sunny 54 12 46 8 77 77 NNW 20 31 30.06 1018 10 16 N/A
8:35 am 08:35 Sunny 54 12 45 7 72 72 N 23 37 30.09 1019 10 16 N/A
8:55 am 08:55 Sunny 55 13 45 7 67 67 NNW 21 33 30.09 1019 10 16 N/A
9:15 am 09:15 Sunny 55 13 45 7 67 67 N 16 26 30.09 1019 10 16 N/A
9:35 am 09:35 Sunny 55 13 45 7 67 67 N 17 28 30.09 1019 10 16 N/A
9:55 am 09:55 Sunny 55 13 45 7 67 67 N 17 28 30.09 1019 10 16 N/A
10:15 am 10:15 Sunny 55 13 45 7 67 67 NNW 23 37 30.09 1019 10 16 N/A
10:35 am 10:35 Sunny 57 14 45 7 63 63 N 21 33 30.09 1019 10 16 N/A
10:55 am 10:55 Sunny 59 15 45 7 59 59 N 20 31 30.09 1019 10 16 N/A
11:15 am 11:15 Sunny 59 15 45 7 59 59 N 22 35 30.09 1019 10 16 N/A
11:35 am 11:35 Sunny 61 16 45 7 55 55 NNW 18 30 30.09 1019 10 16 N/A
11:55 am 11:55 Sunny 61 16 45 7 55 55 N 20 31 30.09 1019 10 16 N/A
12:15 pm 12:15 Sunny 61 16 45 7 55 55 NNW 22 35 30.09 1019 10 16 N/A
12:35 pm 12:35 Sunny 63 17 45 7 52 52 NNW 20 31 30.09 1019 10 16 N/A
12:55 pm 12:55 Sunny 63 17 45 7 52 52 N 22 35 30.09 1019 10 16 N/A
1:15 pm 13:15 Sunny 63 17 45 7 52 52 NNW 23 37 30.09 1019 10 16 N/A
1:35 pm 13:35 Sunny 64 18 45 7 49 49 N 22 35 N/A 10 16 N/A
1:55 pm 13:55 undefined 64 18 45 7 49 49 undefined N/A N/A N/A N/A
2:15 pm 14:15 undefined N/A N/A N/A undefined N/A N/A N/A N/A
2:35 pm 14:35 undefined 66 19 43 6 43 43 N 20 31 30.06 1018 10 16 N/A
2:55 pm 14:55 Sunny 66 19 45 7 46 46 N 22 35 30.09 1019 10 16 N/A
3:15 pm 15:15 Sunny 66 19 45 7 46 46 N 20 31 30.09 1019 10 16 N/A
3:35 pm 15:35 Sunny 66 19 45 7 46 46 NNW 25 41 30.09 1019 10 16 N/A
3:55 pm 15:55 Sunny 66 19 43 6 43 43 N 22 35 30.09 1019 10 16 N/A
4:15 pm 16:15 Sunny 66 19 45 7 46 46 N 23 37 30.09 1019 10 16 N/A
4:35 pm 16:35 Sunny 66 19 45 7 46 46 N 17 28 30.09 1019 10 16 N/A
4:55 pm 16:55 Sunny 64 18 43 6 46 46 N 22 35 30.12 1020 10 16 N/A
5:15 pm 17:15 Sunny 64 18 43 6 46 46 N 23 37 30.12 1020 10 16 N/A
5:35 pm 17:35 Sunny 64 18 45 7 49 49 N 21 33 30.12 1020 10 16 N/A
5:55 pm 17:55 Sunny 63 17 43 6 49 49 N 20 31 30.12 1020 10 16 N/A
6:15 pm 18:15 Sunny 63 17 43 6 49 49 N 14 22 30.15 1021 10 16 N/A
6:35 pm 18:35 Sunny 63 17 43 6 49 49 N 15 24 30.15 1021 10 16 N/A
6:55 pm 18:55 Clear 61 16 43 6 52 52 N 12 19 30.15 1021 10 16 N/A
7:15 pm 19:15 Clear 61 16 43 6 52 52 N 15 24 30.15 1021 10 16 N/A
7:35 pm 19:35 Partly Cloudy 61 16 43 6 52 52 NNW 13 20 30.15 1021 10 16 N/A
7:55 pm 19:55 Mostly Cloudy 59 15 45 7 59 59 NNW 13 20 30.18 1022 10 16 N/A
8:15 pm 20:15 Mostly Cloudy 59 15 45 7 59 59 NNW 12 19 30.18 1022 10 16 N/A
8:35 pm 20:35 Mostly Cloudy 59 15 45 7 59 59 NNW 12 19 30.18 1022 10 16 N/A
8:55 pm 20:55 Cloudy 59 15 45 7 59 59 NNW 13 20 30.18 1022 10 16 N/A
9:15 pm 21:15 Cloudy 59 15 45 7 59 59 NNW 12 19 30.18 1022 10 16 N/A
9:35 pm 21:35 Cloudy 59 15 43 6 55 55 NNW 14 22 30.21 1023 10 16 N/A
9:55 pm 21:55 Mostly Cloudy 59 15 43 6 55 55 NNW 12 19 30.21 1023 10 16 N/A
10:15 pm 22:15 Mostly Cloudy 57 14 43 6 59 59 NW 12 19 30.21 1023 10 16 N/A
10:35 pm 22:35 Partly Cloudy 57 14 43 6 59 59 NNW 8 13 30.21 1023 10 16 N/A
10:55 pm 22:55 Mostly Cloudy 55 13 43 6 63 63 N 7 11 30.21 1023 10 16 N/A
11:15 pm 23:15 Mostly Cloudy 55 13 43 6 63 63 NNW 8 13 30.21 1023 10 16 N/A
11:35 pm 23:35 Clear 55 13 43 6 63 63 NW 6 9 30.24 1024 10 16 N/A
11:55 pm 23:55 Clear 54 12 43 6 67 67 NW 9 15 30.24 1024 10 16 N/A

Powered by AerisWeather